Time,TemperatureF,DewpointF,PressureIn,WindDirection,WindDirectionDegrees,WindSpeedMPH,WindSpeedGustMPH,Humidity,HourlyPrecipIn,Conditions,Clouds,dailyrainin,SoftwareType,DateUTC
2013-01-03 00:03:00,37.8,33.1,30.33,NNE,16,2.0,3.0,83,0.00,,,0.00,LWC V2.11 B50,2013-01-03 06:03:00,
2013-01-03 00:08:00,37.7,33.0,30.33,NNE,16,2.0,2.0,83,0.00,,,0.00,LWC V2.11 B50,2013-01-03 06:08:00,
2013-01-03 00:13:00,37.5,32.8,30.32,North,355,1.0,4.0,83,0.00,,,0.00,LWC V2.11 B50,2013-01-03 06:13:00,
2013-01-03 00:18:00,37.4,32.4,30.33,NNW,344,1.0,5.0,82,0.00,,,0.00,LWC V2.11 B50,2013-01-03 06:18:00,
2013-01-03 00:23:00,37.3,32.3,30.33,NNW,338,1.0,4.0,82,0.00,,,0.00,LWC V2.11 B50,2013-01-03 06:23:00,
2013-01-03 00:28:00,37.3,32.3,30.33,NNE,12,1.0,4.0,82,0.00,,,0.00,LWC V2.11 B50,2013-01-03 06:28:00,
2013-01-03 00:33:00,37.3,32.6,30.33,NNW,332,2.0,4.0,83,0.00,,,0.00,LWC V2.11 B50,2013-01-03 06:33:00,
2013-01-03 00:38:00,37.2,32.5,30.33,NNW,348,1.0,6.0,83,0.00,,,0.00,LWC V2.11 B50,2013-01-03 06:38:00,
2013-01-03 00:44:00,37.2,32.5,30.33,NNW,334,4.0,4.0,83,0.00,,,0.00,LWC V2.11 B50,2013-01-03 06:44:00,
2013-01-03 00:49:00,37.1,32.4,30.32,NNW,339,1.0,4.0,83,0.00,,,0.00,LWC V2.11 B50,2013-01-03 06:49:00,
2013-01-03 00:54:00,37.1,32.1,30.32,North,355,2.0,5.0,82,0.00,,,0.00,LWC V2.11 B50,2013-01-03 06:54:00,
2013-01-03 00:59:00,37.1,32.1,30.32,North,5,1.0,4.0,82,0.00,,,0.00,LWC V2.11 B50,2013-01-03 06:59:00,
2013-01-03 01:04:00,37.1,32.1,30.32,North,355,0.0,2.0,82,0.00,,,0.00,LWC V2.11 B50,2013-01-03 07:04:00,
2013-01-03 01:09:00,37.1,32.1,30.32,NNE,16,0.0,2.0,82,0.00,,,0.00,LWC V2.11 B50,2013-01-03 07:09:00,
2013-01-03 01:14:00,37.1,32.1,30.32,North,355,4.0,4.0,82,0.00,,,0.00,LWC V2.11 B50,2013-01-03 07:14:00,
2013-01-03 01:19:00,37.1,32.1,30.32,NNW,333,2.0,5.0,82,0.00,,,0.00,LWC V2.11 B50,2013-01-03 07:19:00,
2013-01-03 01:24:00,37.2,32.2,30.33,NNW,327,2.0,5.0,82,0.00,,,0.00,LWC V2.11 B50,2013-01-03 07:24:00,
2013-01-03 01:29:00,37.3,32.3,30.33,North,355,2.0,5.0,82,0.00,,,0.00,LWC V2.11 B50,2013-01-03 07:29:00,
2013-01-03 01:34:00,37.4,32.4,30.33,North,355,0.0,2.0,82,0.00,,,0.00,LWC V2.11 B50,2013-01-03 07:34:00,
2013-01-03 01:39:00,37.5,32.5,30.33,North,355,0.0,0.0,82,0.00,,,0.00,LWC V2.11 B50,2013-01-03 07:39:00,
2013-01-03 01:44:00,37.6,32.3,30.33,North,351,4.0,4.0,81,0.00,,,0.00,LWC V2.11 B50,2013-01-03 07:44:00,
2013-01-03 01:49:00,37.7,32.1,30.33,NNW,339,0.0,5.0,80,0.00,,,0.00,LWC V2.11 B50,2013-01-03 07:49:00,
2013-01-03 01:54:00,37.8,32.2,30.33,NW,324,0.0,4.0,80,0.00,,,0.00,LWC V2.11 B50,2013-01-03 07:54:00,
2013-01-03 01:59:00,37.9,32.0,30.32,North,351,2.0,5.0,79,0.00,,,0.00,LWC V2.11 B50,2013-01-03 07:59:00,
2013-01-03 02:04:00,37.9,32.0,30.32,North,350,5.0,6.0,79,0.00,,,0.00,LWC V2.11 B50,2013-01-03 08:04:00,
2013-01-03 02:09:00,37.9,32.0,30.33,North,355,2.0,5.0,79,0.00,,,0.00,LWC V2.11 B50,2013-01-03 08:09:00,
2013-01-03 02:14:00,38.0,31.8,30.33,NNE,14,4.0,8.0,78,0.00,,,0.00,LWC V2.11 B50,2013-01-03 08:14:00,
2013-01-03 02:19:00,37.9,31.7,30.33,North,350,4.0,5.0,78,0.00,,,0.00,LWC V2.11 B50,2013-01-03 08:19:00,
2013-01-03 02:24:00,38.0,31.8,30.33,North,349,1.0,2.0,78,0.00,,,0.00,LWC V2.11 B50,2013-01-03 08:24:00,
2013-01-03 02:29:00,38.0,31.8,30.33,North,355,2.0,5.0,78,0.00,,,0.00,LWC V2.11 B50,2013-01-03 08:29:00,
2013-01-03 02:34:00,37.9,31.7,30.33,North,355,1.0,2.0,78,0.00,,,0.00,LWC V2.11 B50,2013-01-03 08:34:00,
2013-01-03 02:39:00,38.0,32.1,30.34,NNW,342,1.0,4.0,79,0.00,,,0.00,LWC V2.11 B50,2013-01-03 08:39:00,
2013-01-03 02:44:00,37.9,32.0,30.34,NNW,343,0.0,2.0,79,0.00,,,0.00,LWC V2.11 B50,2013-01-03 08:44:00,
2013-01-03 02:49:00,37.9,32.0,30.34,North,355,0.0,1.0,79,0.00,,,0.00,LWC V2.11 B50,2013-01-03 08:49:00,
2013-01-03 02:54:00,38.0,32.1,30.34,North,355,1.0,1.0,79,0.00,,,0.00,LWC V2.11 B50,2013-01-03 08:54:00,
2013-01-03 02:59:00,37.9,32.3,30.33,North,355,0.0,2.0,80,0.00,,,0.00,LWC V2.11 B50,2013-01-03 08:59:00,
2013-01-03 03:04:00,37.9,32.0,30.33,North,5,0.0,1.0,79,0.00,,,0.00,LWC V2.11 B50,2013-01-03 09:04:00,
2013-01-03 03:09:00,37.9,32.3,30.34,North,5,1.0,2.0,80,0.00,,,0.00,LWC V2.11 B50,2013-01-03 09:09:00,
2013-01-03 03:15:00,37.9,32.0,30.34,North,0,2.0,3.0,79,0.00,,,0.00,LWC V2.11 B50,2013-01-03 09:15:00,
2013-01-03 03:20:00,37.9,32.0,30.34,North,5,1.0,3.0,79,0.00,,,0.00,LWC V2.11 B50,2013-01-03 09:20:00,
2013-01-03 03:25:00,38.0,32.1,30.34,North,5,0.0,0.0,79,0.00,,,0.00,LWC V2.11 B50,2013-01-03 09:25:00,
2013-01-03 03:30:00,38.0,32.4,30.34,North,5,0.0,0.0,80,0.00,,,0.00,LWC V2.11 B50,2013-01-03 09:30:00,
2013-01-03 03:35:00,38.1,32.2,30.35,North,5,0.0,1.0,79,0.00,,,0.00,LWC V2.11 B50,2013-01-03 09:35:00,
2013-01-03 03:40:00,38.2,32.3,30.35,NNE,24,0.0,1.0,79,0.00,,,0.00,LWC V2.11 B50,2013-01-03 09:40:00,
2013-01-03 03:45:00,38.2,32.3,30.35,NNE,24,0.0,1.0,79,0.00,,,0.00,LWC V2.11 B50,2013-01-03 09:45:00,
2013-01-03 03:50:00,38.3,32.4,30.35,NNE,24,0.0,0.0,79,0.00,,,0.00,LWC V2.11 B50,2013-01-03 09:50:00,
2013-01-03 03:55:00,38.3,32.4,30.36,NNE,24,0.0,0.0,79,0.00,,,0.00,LWC V2.11 B50,2013-01-03 09:55:00,
2013-01-03 04:00:00,38.3,32.1,30.36,NNE,24,0.0,1.0,78,0.00,,,0.00,LWC V2.11 B50,2013-01-03 10:00:00,
2013-01-03 04:05:00,38.3,31.7,30.37,NE,42,0.0,0.0,77,0.00,,,0.00,LWC V2.11 B50,2013-01-03 10:05:00,
2013-01-03 04:10:00,38.4,31.8,30.36,NNE,28,2.0,4.0,77,0.00,,,0.00,LWC V2.11 B50,2013-01-03 10:10:00,
2013-01-03 04:15:00,38.6,31.7,30.37,NNW,346,4.0,5.0,76,0.00,,,0.00,LWC V2.11 B50,2013-01-03 10:15:00,
2013-01-03 04:20:00,38.6,31.7,30.36,NE,46,0.0,4.0,76,0.00,,,0.00,LWC V2.11 B50,2013-01-03 10:20:00,
2013-01-03 04:25:00,38.6,31.7,30.36,NNE,22,2.0,6.0,76,0.00,,,0.00,LWC V2.11 B50,2013-01-03 10:25:00,
2013-01-03 04:30:00,38.7,31.5,30.37,NNW,345,0.0,5.0,75,0.00,,,0.00,LWC V2.11 B50,2013-01-03 10:30:00,
2013-01-03 04:35:00,38.7,31.8,30.37,NNE,20,2.0,2.0,76,0.00,,,0.00,LWC V2.11 B50,2013-01-03 10:35:00,
2013-01-03 04:40:00,38.8,31.6,30.37,NNW,342,4.0,5.0,75,0.00,,,0.00,LWC V2.11 B50,2013-01-03 10:40:00,
2013-01-03 04:45:00,38.8,31.2,30.38,North,5,1.0,4.0,74,0.00,,,0.00,LWC V2.11 B50,2013-01-03 10:45:00,
2013-01-03 04:50:00,38.8,31.2,30.38,North,9,0.0,5.0,74,0.00,,,0.00,LWC V2.11 B50,2013-01-03 10:50:00,
2013-01-03 04:55:00,38.9,31.3,30.38,NW,325,1.0,5.0,74,0.00,,,0.00,LWC V2.11 B50,2013-01-03 10:55:00,
2013-01-03 05:00:00,38.9,31.7,30.38,NNW,328,0.0,1.0,75,0.00,,,0.00,LWC V2.11 B50,2013-01-03 11:00:00,
2013-01-03 05:05:00,38.9,31.7,30.38,NNW,334,1.0,2.0,75,0.00,,,0.00,LWC V2.11 B50,2013-01-03 11:05:00,
2013-01-03 05:10:00,38.8,31.9,30.38,NNW,336,1.0,2.0,76,0.00,,,0.00,LWC V2.11 B50,2013-01-03 11:10:00,
2013-01-03 05:15:00,38.8,32.2,30.38,North,351,2.0,4.0,77,0.00,,,0.00,LWC V2.11 B50,2013-01-03 11:15:00,
2013-01-03 05:20:00,38.8,32.2,30.37,NW,325,0.0,6.0,77,0.00,,,0.00,LWC V2.11 B50,2013-01-03 11:20:00,
2013-01-03 05:25:00,38.8,32.2,30.37,North,5,1.0,3.0,77,0.00,,,0.00,LWC V2.11 B50,2013-01-03 11:25:00,
2013-01-03 05:30:00,38.8,32.2,30.36,NNW,348,4.0,7.0,77,0.00,,,0.00,LWC V2.11 B50,2013-01-03 11:30:00,
2013-01-03 05:35:00,38.8,31.9,30.36,North,355,5.0,8.0,76,0.00,,,0.00,LWC V2.11 B50,2013-01-03 11:35:00,
2013-01-03 05:40:00,38.9,31.7,30.36,NNW,333,1.0,8.0,75,0.00,,,0.00,LWC V2.11 B50,2013-01-03 11:40:00,
2013-01-03 05:46:00,38.9,31.7,30.36,North,0,2.0,7.0,75,0.00,,,0.00,LWC V2.11 B50,2013-01-03 11:46:00,
2013-01-03 05:51:00,38.9,31.7,30.36,NNW,334,2.0,5.0,75,0.00,,,0.00,LWC V2.11 B50,2013-01-03 11:51:00,
2013-01-03 05:56:00,39.0,31.8,30.36,NNW,337,4.0,4.0,75,0.00,,,0.00,LWC V2.11 B50,2013-01-03 11:56:00,
2013-01-03 06:01:00,39.0,31.8,30.36,North,355,2.0,4.0,75,0.00,,,0.00,LWC V2.11 B50,2013-01-03 12:01:00,
2013-01-03 06:06:00,39.0,31.4,30.36,NNE,29,1.0,7.0,74,0.00,,,0.00,LWC V2.11 B50,2013-01-03 12:06:00,
2013-01-03 06:11:00,39.1,31.5,30.35,NNE,22,1.0,3.0,74,0.00,,,0.00,LWC V2.11 B50,2013-01-03 12:11:00,
2013-01-03 06:16:00,39.0,31.4,30.36,North,355,5.0,6.0,74,0.00,,,0.00,LWC V2.11 B50,2013-01-03 12:16:00,
2013-01-03 06:21:00,39.1,31.2,30.36,NNE,20,1.0,6.0,73,0.00,,,0.00,LWC V2.11 B50,2013-01-03 12:21:00,
2013-01-03 06:26:00,39.1,31.2,30.36,North,9,3.0,4.0,73,0.00,,,0.00,LWC V2.11 B50,2013-01-03 12:26:00,
2013-01-03 06:31:00,39.1,31.2,30.37,NNE,19,2.0,5.0,73,0.00,,,0.00,LWC V2.11 B50,2013-01-03 12:31:00,
2013-01-03 06:36:00,39.1,31.2,30.37,NNE,15,1.0,7.0,73,0.00,,,0.00,LWC V2.11 B50,2013-01-03 12:36:00,
2013-01-03 06:41:00,39.1,31.2,30.37,North,0,2.0,3.0,73,0.00,,,0.00,LWC V2.11 B50,2013-01-03 12:41:00,
2013-01-03 06:46:00,39.1,30.8,30.36,NNE,12,1.0,7.0,72,0.00,,,0.00,LWC V2.11 B50,2013-01-03 12:46:00,
2013-01-03 06:51:00,39.1,30.8,30.38,North,355,2.0,6.0,72,0.00,,,0.00,LWC V2.11 B50,2013-01-03 12:51:00,
2013-01-03 06:56:00,39.1,30.8,30.38,NNE,22,2.0,7.0,72,0.00,,,0.00,LWC V2.11 B50,2013-01-03 12:56:00,
2013-01-03 07:01:00,39.1,30.8,30.38,North,9,5.0,5.0,72,0.00,,,0.00,LWC V2.11 B50,2013-01-03 13:01:00,
2013-01-03 07:06:00,39.1,30.8,30.39,NNW,329,1.0,5.0,72,0.00,,,0.00,LWC V2.11 B50,2013-01-03 13:06:00,
2013-01-03 07:11:00,39.1,30.8,30.39,North,355,0.0,5.0,72,0.00,,,0.00,LWC V2.11 B50,2013-01-03 13:11:00,
2013-01-03 07:16:00,39.1,30.8,30.40,North,351,2.0,5.0,72,0.00,,,0.00,LWC V2.11 B50,2013-01-03 13:16:00,
2013-01-03 07:21:00,39.2,30.9,30.40,NW,317,7.0,7.0,72,0.00,,,0.00,LWC V2.11 B50,2013-01-03 13:21:00,
2013-01-03 07:26:00,39.2,30.9,30.39,NNW,327,2.0,6.0,72,0.00,,,0.00,LWC V2.11 B50,2013-01-03 13:26:00,
2013-01-03 07:31:00,39.2,30.9,30.39,NNE,28,3.0,6.0,72,0.00,,,0.00,LWC V2.11 B50,2013-01-03 13:31:00,
2013-01-03 07:36:00,39.1,30.8,30.40,NNE,22,2.0,3.0,72,0.00,,,0.00,LWC V2.11 B50,2013-01-03 13:36:00,
2013-01-03 07:41:00,39.2,30.9,30.40,North,351,4.0,9.0,72,0.00,,,0.00,LWC V2.11 B50,2013-01-03 13:41:00,
2013-01-03 07:46:00,39.2,30.9,30.40,NNW,335,7.0,8.0,72,0.00,,,0.00,LWC V2.11 B50,2013-01-03 13:46:00,
2013-01-03 07:51:00,39.3,30.7,30.40,NW,325,4.0,7.0,71,0.00,,,0.00,LWC V2.11 B50,2013-01-03 13:51:00,
2013-01-03 07:56:00,39.3,30.7,30.40,North,5,10.0,10.0,71,0.00,,,0.00,LWC V2.11 B50,2013-01-03 13:56:00,
2013-01-03 08:01:00,39.4,30.8,30.40,NNE,31,5.0,10.0,71,0.00,,,0.00,LWC V2.11 B50,2013-01-03 14:01:00,
2013-01-03 08:06:00,39.5,30.5,30.40,NNE,19,8.0,10.0,70,0.00,,,0.00,LWC V2.11 B50,2013-01-03 14:06:00,
2013-01-03 08:12:00,39.6,30.6,30.40,North,350,6.0,9.0,70,0.00,,,0.00,LWC V2.11 B50,2013-01-03 14:12:00,
2013-01-03 08:17:00,39.8,30.8,30.41,NE,40,3.0,10.0,70,0.00,,,0.00,LWC V2.11 B50,2013-01-03 14:17:00,
2013-01-03 08:22:00,40.0,30.7,30.41,NNE,21,3.0,9.0,69,0.00,,,0.00,LWC V2.11 B50,2013-01-03 14:22:00,
2013-01-03 08:27:00,40.1,30.4,30.41,NNE,29,3.0,9.0,68,0.00,,,0.00,LWC V2.11 B50,2013-01-03 14:27:00,
2013-01-03 08:32:00,40.2,30.5,30.41,NNW,341,5.0,9.0,68,0.00,,,0.00,LWC V2.11 B50,2013-01-03 14:32:00,
2013-01-03 08:37:00,40.4,30.3,30.41,NNW,348,4.0,11.0,67,0.00,,,0.00,LWC V2.11 B50,2013-01-03 14:37:00,
2013-01-03 08:42:00,40.5,30.4,30.41,NNE,12,4.0,11.0,67,0.00,,,0.00,LWC V2.11 B50,2013-01-03 14:42:00,
2013-01-03 08:47:00,40.7,30.6,30.42,NNE,19,7.0,11.0,67,0.00,,,0.00,LWC V2.11 B50,2013-01-03 14:47:00,
2013-01-03 08:52:00,40.7,30.2,30.42,North,355,11.0,12.0,66,0.00,,,0.00,LWC V2.11 B50,2013-01-03 14:52:00,
2013-01-03 08:57:00,41.0,30.5,30.42,NNW,336,4.0,7.0,66,0.00,,,0.00,LWC V2.11 B50,2013-01-03 14:57:00,
2013-01-03 09:02:00,41.1,30.6,30.43,NNW,335,5.0,7.0,66,0.00,,,0.00,LWC V2.11 B50,2013-01-03 15:02:00,
2013-01-03 09:07:00,41.1,30.6,30.43,North,355,5.0,8.0,66,0.00,,,0.00,LWC V2.11 B50,2013-01-03 15:07:00,
2013-01-03 09:12:00,41.2,30.7,30.43,NNW,348,7.0,8.0,66,0.00,,,0.00,LWC V2.11 B50,2013-01-03 15:12:00,
2013-01-03 09:17:00,41.1,30.6,30.43,North,351,7.0,10.0,66,0.00,,,0.00,LWC V2.11 B50,2013-01-03 15:17:00,
2013-01-03 09:22:00,41.1,30.6,30.43,North,5,2.0,6.0,66,0.00,,,0.00,LWC V2.11 B50,2013-01-03 15:22:00,
2013-01-03 09:27:00,41.1,30.6,30.43,North,355,4.0,8.0,66,0.00,,,0.00,LWC V2.11 B50,2013-01-03 15:27:00,
2013-01-03 09:32:00,41.2,30.7,30.44,NE,49,2.0,8.0,66,0.00,,,0.00,LWC V2.11 B50,2013-01-03 15:32:00,
2013-01-03 09:37:00,41.3,30.8,30.44,NNE,16,2.0,5.0,66,0.00,,,0.00,LWC V2.11 B50,2013-01-03 15:37:00,
2013-01-03 09:42:00,41.2,31.1,30.44,NNW,338,5.0,8.0,67,0.00,,,0.00,LWC V2.11 B50,2013-01-03 15:42:00,
2013-01-03 09:47:00,41.2,31.1,30.44,North,355,6.0,6.0,67,0.00,,,0.00,LWC V2.11 B50,2013-01-03 15:47:00,
2013-01-03 09:52:00,41.2,31.5,30.44,North,5,5.0,6.0,68,0.00,,,0.00,LWC V2.11 B50,2013-01-03 15:52:00,
2013-01-03 09:57:00,41.2,31.1,30.45,NNW,336,7.0,7.0,67,0.00,,,0.00,LWC V2.11 B50,2013-01-03 15:57:00,
2013-01-03 10:02:00,41.3,30.8,30.45,NNE,21,3.0,8.0,66,0.00,,,0.00,LWC V2.11 B50,2013-01-03 16:02:00,
2013-01-03 10:07:00,41.4,31.3,30.45,North,355,5.0,5.0,67,0.00,,,0.00,LWC V2.11 B50,2013-01-03 16:07:00,
2013-01-03 10:12:00,41.5,31.4,30.45,NNW,343,5.0,7.0,67,0.00,,,0.00,LWC V2.11 B50,2013-01-03 16:12:00,
2013-01-03 10:17:00,41.6,31.1,30.45,North,350,2.0,6.0,66,0.00,,,0.00,LWC V2.11 B50,2013-01-03 16:17:00,
2013-01-03 10:22:00,41.7,31.6,30.46,North,355,2.0,6.0,67,0.00,,,0.00,LWC V2.11 B50,2013-01-03 16:22:00,
2013-01-03 10:27:00,41.8,30.9,30.46,NNE,24,2.0,9.0,65,0.00,,,0.00,LWC V2.11 B50,2013-01-03 16:27:00,
2013-01-03 10:32:00,41.9,31.0,30.45,North,0,2.0,7.0,65,0.00,,,0.00,LWC V2.11 B50,2013-01-03 16:32:00,
2013-01-03 10:37:00,42.0,31.1,30.46,NNW,348,8.0,8.0,65,0.00,,,0.00,LWC V2.11 B50,2013-01-03 16:37:00,
2013-01-03 10:43:00,42.1,31.2,30.46,NNW,335,2.0,10.0,65,0.00,,,0.00,LWC V2.11 B50,2013-01-03 16:43:00,
2013-01-03 10:48:00,42.1,30.8,30.46,NNW,335,10.0,10.0,64,0.00,,,0.00,LWC V2.11 B50,2013-01-03 16:48:00,
2013-01-03 10:53:00,42.1,30.4,30.46,NNW,348,4.0,8.0,63,0.00,,,0.00,LWC V2.11 B50,2013-01-03 16:53:00,
2013-01-03 10:58:00,42.3,31.0,30.46,NE,34,8.0,8.0,64,0.00,,,0.00,LWC V2.11 B50,2013-01-03 16:58:00,
2013-01-03 11:03:00,42.5,30.8,30.46,NNW,336,5.0,8.0,63,0.00,,,0.00,LWC V2.11 B50,2013-01-03 17:03:00,
2013-01-03 11:08:00,42.8,31.5,30.46,NE,48,2.0,7.0,64,0.00,,,0.00,LWC V2.11 B50,2013-01-03 17:08:00,
2013-01-03 11:13:00,42.9,31.2,30.46,NNW,330,4.0,6.0,63,0.00,,,0.00,LWC V2.11 B50,2013-01-03 17:13:00,
2013-01-03 11:18:00,43.1,31.4,30.45,NNE,22,7.0,10.0,63,0.00,,,0.00,LWC V2.11 B50,2013-01-03 17:18:00,
2013-01-03 11:23:00,43.2,30.7,30.46,NNW,333,1.0,10.0,61,0.00,,,0.00,LWC V2.11 B50,2013-01-03 17:23:00,
2013-01-03 11:28:00,43.3,30.8,30.46,NW,318,8.0,9.0,61,0.00,,,0.00,LWC V2.11 B50,2013-01-03 17:28:00,
2013-01-03 11:33:00,43.3,31.2,30.46,NW,325,4.0,7.0,62,0.00,,,0.00,LWC V2.11 B50,2013-01-03 17:33:00,
2013-01-03 11:38:00,43.5,31.0,30.45,NW,304,4.0,8.0,61,0.00,,,0.00,LWC V2.11 B50,2013-01-03 17:38:00,
2013-01-03 11:43:00,43.6,31.0,30.45,NNW,344,4.0,6.0,61,0.00,,,0.00,LWC V2.11 B50,2013-01-03 17:43:00,
2013-01-03 11:48:00,43.7,31.1,30.44,North,9,1.0,6.0,61,0.00,,,0.00,LWC V2.11 B50,2013-01-03 17:48:00,
2013-01-03 11:53:00,43.7,31.5,30.44,NNE,20,1.0,8.0,62,0.00,,,0.00,LWC V2.11 B50,2013-01-03 17:53:00,
2013-01-03 11:58:00,43.7,31.1,30.44,North,5,3.0,10.0,61,0.00,,,0.00,LWC V2.11 B50,2013-01-03 17:58:00,
2013-01-03 12:03:00,43.8,31.2,30.44,NW,318,2.0,7.0,61,0.00,,,0.00,LWC V2.11 B50,2013-01-03 18:03:00,
2013-01-03 12:08:00,44.0,31.8,30.44,NNW,344,2.0,9.0,62,0.00,,,0.00,LWC V2.11 B50,2013-01-03 18:08:00,
2013-01-03 12:13:00,44.1,31.1,30.44,NNW,340,6.0,9.0,60,0.00,,,0.00,LWC V2.11 B50,2013-01-03 18:13:00,
2013-01-03 12:18:00,44.0,31.0,30.44,NNW,341,6.0,8.0,60,0.00,,,0.00,LWC V2.11 B50,2013-01-03 18:18:00,
2013-01-03 12:23:00,44.0,31.0,30.44,North,350,5.0,8.0,60,0.00,,,0.00,LWC V2.11 B50,2013-01-03 18:23:00,
2013-01-03 12:28:00,44.1,31.5,30.43,North,9,5.0,7.0,61,0.00,,,0.00,LWC V2.11 B50,2013-01-03 18:28:00,
2013-01-03 12:33:00,44.2,31.2,30.43,NW,321,4.0,5.0,60,0.00,,,0.00,LWC V2.11 B50,2013-01-03 18:33:00,
2013-01-03 12:38:00,44.3,31.7,30.43,NNW,336,6.0,8.0,61,0.00,,,0.00,LWC V2.11 B50,2013-01-03 18:38:00,
2013-01-03 12:43:00,44.2,31.2,30.42,NNW,343,7.0,9.0,60,0.00,,,0.00,LWC V2.11 B50,2013-01-03 18:43:00,
2013-01-03 12:48:00,44.1,31.1,30.42,NNW,348,4.0,8.0,60,0.00,,,0.00,LWC V2.11 B50,2013-01-03 18:48:00,
2013-01-03 12:53:00,44.1,31.1,30.41,NNW,336,7.0,8.0,60,0.00,,,0.00,LWC V2.11 B50,2013-01-03 18:53:00,
2013-01-03 12:58:00,44.2,31.2,30.41,NNE,28,6.0,11.0,60,0.00,,,0.00,LWC V2.11 B50,2013-01-03 18:58:00,
2013-01-03 13:03:00,44.4,31.4,30.41,NNW,344,5.0,6.0,60,0.00,,,0.00,LWC V2.11 B50,2013-01-03 19:03:00,
2013-01-03 13:08:00,44.6,31.6,30.41,NNE,21,2.0,3.0,60,0.00,,,0.00,LWC V2.11 B50,2013-01-03 19:08:00,
2013-01-03 13:14:00,44.5,31.1,30.40,NNW,336,1.0,8.0,59,0.00,,,0.00,LWC V2.11 B50,2013-01-03 19:14:00,
2013-01-03 13:19:00,44.6,31.2,30.40,North,0,5.0,6.0,59,0.00,,,0.00,LWC V2.11 B50,2013-01-03 19:19:00,
2013-01-03 13:56:00,45.5,32.0,30.39,NNW,342,5.0,8.0,59,0.00,,,0.00,LWC V2.11 B50,2013-01-03 19:56:00,
2013-01-03 14:01:00,45.7,31.8,30.39,NNE,30,5.0,10.0,58,0.00,,,0.00,LWC V2.11 B50,2013-01-03 20:01:00,
2013-01-03 14:06:00,45.7,31.8,30.39,NNE,20,2.0,6.0,58,0.00,,,0.00,LWC V2.11 B50,2013-01-03 20:06:00,
2013-01-03 14:11:00,45.7,31.8,30.39,NW,326,7.0,8.0,58,0.00,,,0.00,LWC V2.11 B50,2013-01-03 20:11:00,
2013-01-03 14:16:00,45.8,31.9,30.39,NNW,336,6.0,8.0,58,0.00,,,0.00,LWC V2.11 B50,2013-01-03 20:16:00,
2013-01-03 14:21:00,45.8,31.4,30.39,NNE,17,5.0,10.0,57,0.00,,,0.00,LWC V2.11 B50,2013-01-03 20:21:00,
2013-01-03 14:26:00,45.8,31.4,30.39,NNE,15,2.0,8.0,57,0.00,,,0.00,LWC V2.11 B50,2013-01-03 20:26:00,
2013-01-03 14:31:00,45.7,31.3,30.39,NNW,331,10.0,10.0,57,0.00,,,0.00,LWC V2.11 B50,2013-01-03 20:31:00,
2013-01-03 14:36:00,45.7,31.3,30.39,NW,326,4.0,8.0,57,0.00,,,0.00,LWC V2.11 B50,2013-01-03 20:36:00,
2013-01-03 14:41:00,46.0,32.1,30.39,NNW,346,2.0,10.0,58,0.00,,,0.00,LWC V2.11 B50,2013-01-03 20:41:00,
2013-01-03 14:46:00,46.2,31.4,30.39,North,355,8.0,12.0,56,0.00,,,0.00,LWC V2.11 B50,2013-01-03 20:46:00,
2013-01-03 14:51:00,46.1,31.7,30.38,NNE,16,3.0,8.0,57,0.00,,,0.00,LWC V2.11 B50,2013-01-03 20:51:00,
2013-01-03 14:56:00,46.1,31.7,30.38,NNW,337,7.0,9.0,57,0.00,,,0.00,LWC V2.11 B50,2013-01-03 20:56:00,
2013-01-03 15:01:00,46.3,31.9,30.39,North,5,7.0,11.0,57,0.00,,,0.00,LWC V2.11 B50,2013-01-03 21:01:00,
2013-01-03 15:06:00,46.3,31.9,30.38,NNE,17,9.0,9.0,57,0.00,,,0.00,LWC V2.11 B50,2013-01-03 21:06:00,
2013-01-03 15:11:00,46.3,31.9,30.39,North,0,6.0,12.0,57,0.00,,,0.00,LWC V2.11 B50,2013-01-03 21:11:00,
2013-01-03 15:16:00,46.2,32.2,30.39,NNE,33,4.0,8.0,58,0.00,,,0.00,LWC V2.11 B50,2013-01-03 21:16:00,
2013-01-03 15:21:00,46.3,32.3,30.39,NNE,23,4.0,8.0,58,0.00,,,0.00,LWC V2.11 B50,2013-01-03 21:21:00,
2013-01-03 15:26:00,46.4,32.9,30.39,NNE,12,5.0,6.0,59,0.00,,,0.00,LWC V2.11 B50,2013-01-03 21:26:00,
2013-01-03 15:31:00,46.5,33.0,30.39,NNW,339,2.0,2.0,59,0.00,,,0.00,LWC V2.11 B50,2013-01-03 21:31:00,
2013-01-03 15:36:00,46.5,32.5,30.39,North,355,9.0,10.0,58,0.00,,,0.00,LWC V2.11 B50,2013-01-03 21:36:00,
2013-01-03 15:42:00,46.4,32.4,30.39,North,0,5.0,14.0,58,0.00,,,0.00,LWC V2.11 B50,2013-01-03 21:42:00,
2013-01-03 15:47:00,46.2,32.2,30.39,NW,308,2.0,8.0,58,0.00,,,0.00,LWC V2.11 B50,2013-01-03 21:47:00,
2013-01-03 15:52:00,46.1,32.2,30.39,North,351,4.0,11.0,58,0.00,,,0.00,LWC V2.11 B50,2013-01-03 21:52:00,
2013-01-03 15:57:00,46.1,32.2,30.40,NNW,328,4.0,9.0,58,0.00,,,0.00,LWC V2.11 B50,2013-01-03 21:57:00,
2013-01-03 16:02:00,46.0,32.1,30.39,North,0,2.0,8.0,58,0.00,,,0.00,LWC V2.11 B50,2013-01-03 22:02:00,
2013-01-03 16:07:00,46.1,32.6,30.39,NNW,339,5.0,7.0,59,0.00,,,0.00,LWC V2.11 B50,2013-01-03 22:07:00,
2013-01-03 16:12:00,46.1,33.0,30.39,North,355,4.0,7.0,60,0.00,,,0.00,LWC V2.11 B50,2013-01-03 22:12:00,
2013-01-03 16:17:00,46.1,32.6,30.39,NNW,348,6.0,9.0,59,0.00,,,0.00,LWC V2.11 B50,2013-01-03 22:17:00,
2013-01-03 16:22:00,46.0,32.5,30.39,NNW,330,9.0,12.0,59,0.00,,,0.00,LWC V2.11 B50,2013-01-03 22:22:00,
2013-01-03 16:27:00,45.9,32.8,30.39,NNW,329,8.0,10.0,60,0.00,,,0.00,LWC V2.11 B50,2013-01-03 22:27:00,
2013-01-03 16:32:00,45.8,32.7,30.39,North,9,2.0,5.0,60,0.00,,,0.00,LWC V2.11 B50,2013-01-03 22:32:00,
2013-01-03 16:37:00,45.7,32.6,30.39,NNW,344,7.0,10.0,60,0.00,,,0.00,LWC V2.11 B50,2013-01-03 22:37:00,
2013-01-03 16:42:00,45.6,32.9,30.39,NNE,15,2.0,7.0,61,0.00,,,0.00,LWC V2.11 B50,2013-01-03 22:42:00,
2013-01-03 16:47:00,45.6,33.3,30.40,NNW,342,0.0,5.0,62,0.00,,,0.00,LWC V2.11 B50,2013-01-03 22:47:00,
2013-01-03 16:52:00,45.6,32.9,30.40,NNW,338,1.0,9.0,61,0.00,,,0.00,LWC V2.11 B50,2013-01-03 22:52:00,
2013-01-03 16:57:00,45.6,33.3,30.40,North,0,3.0,7.0,62,0.00,,,0.00,LWC V2.11 B50,2013-01-03 22:57:00,
2013-01-03 17:02:00,45.6,33.3,30.40,NW,311,6.0,8.0,62,0.00,,,0.00,LWC V2.11 B50,2013-01-03 23:02:00,
2013-01-03 17:07:00,45.6,32.9,30.40,NNE,18,5.0,10.0,61,0.00,,,0.00,LWC V2.11 B50,2013-01-03 23:07:00,
2013-01-03 17:12:00,45.6,32.9,30.40,NNW,344,5.0,9.0,61,0.00,,,0.00,LWC V2.11 B50,2013-01-03 23:12:00,
2013-01-03 17:17:00,45.5,33.2,30.40,NNW,337,4.0,6.0,62,0.00,,,0.00,LWC V2.11 B50,2013-01-03 23:17:00,
2013-01-03 17:22:00,45.5,33.2,30.40,North,350,1.0,6.0,62,0.00,,,0.00,LWC V2.11 B50,2013-01-03 23:22:00,
2013-01-03 17:27:00,45.5,33.2,30.40,NE,49,1.0,7.0,62,0.00,,,0.00,LWC V2.11 B50,2013-01-03 23:27:00,
2013-01-03 17:32:00,45.4,33.2,30.40,NNW,327,4.0,8.0,62,0.00,,,0.00,LWC V2.11 B50,2013-01-03 23:32:00,
2013-01-03 17:37:00,45.4,33.2,30.41,NNW,344,5.0,10.0,62,0.00,,,0.00,LWC V2.11 B50,2013-01-03 23:37:00,
2013-01-03 17:42:00,45.3,33.1,30.41,NNE,28,3.0,9.0,62,0.00,,,0.00,LWC V2.11 B50,2013-01-03 23:42:00,
2013-01-03 17:47:00,45.2,33.0,30.41,NNW,337,6.0,9.0,62,0.00,,,0.00,LWC V2.11 B50,2013-01-03 23:47:00,
2013-01-03 17:52:00,45.2,33.0,30.41,NNE,22,4.0,7.0,62,0.00,,,0.00,LWC V2.11 B50,2013-01-03 23:52:00,
2013-01-03 17:57:00,45.1,32.9,30.41,NE,39,1.0,9.0,62,0.00,,,0.00,LWC V2.11 B50,2013-01-03 23:57:00,
2013-01-03 18:02:00,45.1,32.9,30.41,NNW,348,8.0,10.0,62,0.00,,,0.00,LWC V2.11 B50,2013-01-04 00:02:00,
2013-01-03 18:07:00,45.0,32.8,30.41,NNW,346,6.0,9.0,62,0.00,,,0.00,LWC V2.11 B50,2013-01-04 00:07:00,
2013-01-03 18:12:00,44.9,33.5,30.41,NW,322,5.0,10.0,64,0.00,,,0.00,LWC V2.11 B50,2013-01-04 00:12:00,
2013-01-03 18:18:00,44.7,34.0,30.41,North,350,5.0,6.0,66,0.00,,,0.00,LWC V2.11 B50,2013-01-04 00:18:00,
2013-01-03 18:23:00,44.5,33.9,30.41,North,355,4.0,8.0,66,0.00,,,0.00,LWC V2.11 B50,2013-01-04 00:23:00,
2013-01-03 18:28:00,44.5,33.9,30.42,NNW,348,5.0,8.0,66,0.00,,,0.00,LWC V2.11 B50,2013-01-04 00:28:00,
2013-01-03 18:33:00,44.5,33.9,30.42,NNW,333,4.0,7.0,66,0.00,,,0.00,LWC V2.11 B50,2013-01-04 00:33:00,
2013-01-03 18:38:00,44.5,33.5,30.41,North,355,0.0,9.0,65,0.00,,,0.00,LWC V2.11 B50,2013-01-04 00:38:00,
2013-01-03 18:43:00,44.5,33.1,30.42,NNE,22,2.0,8.0,64,0.00,,,0.00,LWC V2.11 B50,2013-01-04 00:43:00,
2013-01-03 18:48:00,44.6,33.2,30.42,NNE,26,4.0,6.0,64,0.00,,,0.00,LWC V2.11 B50,2013-01-04 00:48:00,
2013-01-03 18:53:00,44.5,33.1,30.42,NNW,346,9.0,10.0,64,0.00,,,0.00,LWC V2.11 B50,2013-01-04 00:53:00,
2013-01-03 18:58:00,44.5,32.7,30.42,NNE,20,7.0,10.0,63,0.00,,,0.00,LWC V2.11 B50,2013-01-04 00:58:00,
2013-01-03 19:03:00,44.5,32.7,30.42,NNE,28,3.0,9.0,63,0.00,,,0.00,LWC V2.11 B50,2013-01-04 01:03:00,
2013-01-03 19:08:00,44.4,32.6,30.42,North,355,4.0,6.0,63,0.00,,,0.00,LWC V2.11 B50,2013-01-04 01:08:00,
2013-01-03 19:13:00,44.4,32.6,30.43,North,11,2.0,7.0,63,0.00,,,0.00,LWC V2.11 B50,2013-01-04 01:13:00,
2013-01-03 19:18:00,44.4,32.6,30.43,NNW,333,4.0,6.0,63,0.00,,,0.00,LWC V2.11 B50,2013-01-04 01:18:00,
2013-01-03 19:23:00,44.3,32.5,30.43,North,5,2.0,5.0,63,0.00,,,0.00,LWC V2.11 B50,2013-01-04 01:23:00,
2013-01-03 19:28:00,44.3,32.9,30.43,NNE,14,1.0,4.0,64,0.00,,,0.00,LWC V2.11 B50,2013-01-04 01:28:00,
2013-01-03 19:33:00,44.2,32.8,30.43,NNW,344,6.0,7.0,64,0.00,,,0.00,LWC V2.11 B50,2013-01-04 01:33:00,
2013-01-03 19:38:00,44.2,32.8,30.43,NNW,343,4.0,6.0,64,0.00,,,0.00,LWC V2.11 B50,2013-01-04 01:38:00,
2013-01-03 19:43:00,44.1,32.7,30.43,North,5,1.0,5.0,64,0.00,,,0.00,LWC V2.11 B50,2013-01-04 01:43:00,
2013-01-03 19:48:00,44.0,32.6,30.43,North,355,6.0,7.0,64,0.00,,,0.00,LWC V2.11 B50,2013-01-04 01:48:00,
2013-01-03 19:53:00,44.1,32.7,30.43,North,5,2.0,7.0,64,0.00,,,0.00,LWC V2.11 B50,2013-01-04 01:53:00,
2013-01-03 19:58:00,44.1,32.7,30.43,NE,36,3.0,5.0,64,0.00,,,0.00,LWC V2.11 B50,2013-01-04 01:58:00,
2013-01-03 20:03:00,44.0,32.6,30.43,NNW,342,4.0,5.0,64,0.00,,,0.00,LWC V2.11 B50,2013-01-04 02:03:00,
2013-01-03 20:08:00,44.0,32.6,30.43,NE,36,3.0,5.0,64,0.00,,,0.00,LWC V2.11 B50,2013-01-04 02:08:00,
2013-01-03 20:13:00,44.0,32.6,30.43,NNW,342,2.0,7.0,64,0.00,,,0.00,LWC V2.11 B50,2013-01-04 02:13:00,
2013-01-03 20:18:00,44.0,32.6,30.43,NNE,22,2.0,4.0,64,0.00,,,0.00,LWC V2.11 B50,2013-01-04 02:18:00,
2013-01-03 20:23:00,44.0,32.6,30.42,North,0,4.0,9.0,64,0.00,,,0.00,LWC V2.11 B50,2013-01-04 02:23:00,
2013-01-03 20:28:00,44.0,32.6,30.42,NNW,341,1.0,4.0,64,0.00,,,0.00,LWC V2.11 B50,2013-01-04 02:28:00,
2013-01-03 20:33:00,44.0,32.6,30.42,NE,40,4.0,8.0,64,0.00,,,0.00,LWC V2.11 B50,2013-01-04 02:33:00,
2013-01-03 20:38:00,43.9,32.5,30.42,NE,34,7.0,7.0,64,0.00,,,0.00,LWC V2.11 B50,2013-01-04 02:38:00,
2013-01-03 20:43:00,43.9,32.9,30.41,NNE,15,2.0,3.0,65,0.00,,,0.00,LWC V2.11 B50,2013-01-04 02:43:00,
2013-01-03 20:49:00,43.8,32.8,30.41,North,5,1.0,7.0,65,0.00,,,0.00,LWC V2.11 B50,2013-01-04 02:49:00,
2013-01-03 20:54:00,43.8,32.8,30.41,NE,36,1.0,4.0,65,0.00,,,0.00,LWC V2.11 B50,2013-01-04 02:54:00,
2013-01-03 20:59:00,43.7,32.7,30.40,NNE,32,2.0,4.0,65,0.00,,,0.00,LWC V2.11 B50,2013-01-04 02:59:00,
2013-01-03 21:04:00,43.7,32.7,30.41,NNE,27,3.0,6.0,65,0.00,,,0.00,LWC V2.11 B50,2013-01-04 03:04:00,
2013-01-03 21:09:00,43.8,32.8,30.42,North,11,1.0,5.0,65,0.00,,,0.00,LWC V2.11 B50,2013-01-04 03:09:00,
2013-01-03 21:14:00,43.8,32.8,30.42,North,5,0.0,3.0,65,0.00,,,0.00,LWC V2.11 B50,2013-01-04 03:14:00,
2013-01-03 21:19:00,43.8,32.8,30.42,NNW,348,4.0,6.0,65,0.00,,,0.00,LWC V2.11 B50,2013-01-04 03:19:00,
2013-01-03 21:24:00,43.9,32.9,30.42,North,0,2.0,6.0,65,0.00,,,0.00,LWC V2.11 B50,2013-01-04 03:24:00,
2013-01-03 21:29:00,43.8,32.8,30.42,NNE,23,2.0,4.0,65,0.00,,,0.00,LWC V2.11 B50,2013-01-04 03:29:00,
2013-01-03 21:34:00,43.9,33.3,30.43,North,355,0.0,1.0,66,0.00,,,0.00,LWC V2.11 B50,2013-01-04 03:34:00,
2013-01-03 21:39:00,43.8,33.2,30.43,North,5,1.0,3.0,66,0.00,,,0.00,LWC V2.11 B50,2013-01-04 03:39:00,
2013-01-03 21:44:00,43.8,32.8,30.43,NNW,338,4.0,6.0,65,0.00,,,0.00,LWC V2.11 B50,2013-01-04 03:44:00,
2013-01-03 21:49:00,43.8,33.2,30.43,NNW,331,0.0,4.0,66,0.00,,,0.00,LWC V2.11 B50,2013-01-04 03:49:00,
2013-01-03 21:54:00,43.8,33.2,30.43,NNW,328,1.0,5.0,66,0.00,,,0.00,LWC V2.11 B50,2013-01-04 03:54:00,
2013-01-03 21:59:00,43.8,33.2,30.43,NNW,328,1.0,5.0,66,0.00,,,0.00,LWC V2.11 B50,2013-01-04 03:59:00,
2013-01-03 22:04:00,43.7,33.5,30.43,NNW,343,2.0,5.0,67,0.00,,,0.00,LWC V2.11 B50,2013-01-04 04:04:00,
2013-01-03 22:09:00,43.7,33.5,30.42,North,9,1.0,4.0,67,0.00,,,0.00,LWC V2.11 B50,2013-01-04 04:09:00,
2013-01-03 22:14:00,43.6,33.4,30.42,NNE,22,2.0,3.0,67,0.00,,,0.00,LWC V2.11 B50,2013-01-04 04:14:00,
2013-01-03 22:19:00,43.6,33.4,30.41,NNE,28,3.0,3.0,67,0.00,,,0.00,LWC V2.11 B50,2013-01-04 04:19:00,
2013-01-03 22:24:00,43.5,33.7,30.41,North,355,2.0,5.0,68,0.00,,,0.00,LWC V2.11 B50,2013-01-04 04:24:00,
2013-01-03 22:29:00,43.5,33.7,30.42,North,10,1.0,4.0,68,0.00,,,0.00,LWC V2.11 B50,2013-01-04 04:29:00,
2013-01-03 22:34:00,43.5,33.7,30.42,North,5,3.0,4.0,68,0.00,,,0.00,LWC V2.11 B50,2013-01-04 04:34:00,
2013-01-03 22:39:00,43.5,33.3,30.42,North,355,4.0,4.0,67,0.00,,,0.00,LWC V2.11 B50,2013-01-04 04:39:00,
2013-01-03 22:44:00,43.6,33.4,30.42,NNW,332,4.0,6.0,67,0.00,,,0.00,LWC V2.11 B50,2013-01-04 04:44:00,
2013-01-03 22:49:00,43.7,33.5,30.42,NNW,339,4.0,5.0,67,0.00,,,0.00,LWC V2.11 B50,2013-01-04 04:49:00,
2013-01-03 22:54:00,43.7,33.5,30.43,NNW,342,2.0,5.0,67,0.00,,,0.00,LWC V2.11 B50,2013-01-04 04:54:00,
2013-01-03 22:59:00,43.7,33.8,30.42,NNW,329,2.0,5.0,68,0.00,,,0.00,LWC V2.11 B50,2013-01-04 04:59:00,
2013-01-03 23:00:00,43.7,33.8,30.42,NNW,329,4.0,5.0,68,0.00,,,0.00,LWC V2.11 B50,2013-01-04 05:00:00,
2013-01-03 23:03:00,43.6,33.7,30.42,NNW,330,0.0,2.0,68,0.00,,,0.00,LWC V2.11 B50,2013-01-04 05:03:00,
2013-01-03 23:04:00,43.7,33.8,30.42,NNW,330,1.0,4.0,68,0.00,,,0.00,LWC V2.11 B50,2013-01-04 05:04:00,
2013-01-03 23:09:00,43.6,33.7,30.42,NNW,333,5.0,5.0,68,0.00,,,0.00,LWC V2.11 B50,2013-01-04 05:09:00,
2013-01-03 23:14:00,43.6,33.7,30.42,North,5,0.0,3.0,68,0.00,,,0.00,LWC V2.11 B50,2013-01-04 05:14:00,
2013-01-03 23:19:00,43.6,33.7,30.42,NNW,338,0.0,5.0,68,0.00,,,0.00,LWC V2.11 B50,2013-01-04 05:19:00,
2013-01-03 23:24:00,43.6,33.7,30.42,North,355,2.0,4.0,68,0.00,,,0.00,LWC V2.11 B50,2013-01-04 05:24:00,
2013-01-03 23:29:00,43.6,33.7,30.42,NNW,347,2.0,5.0,68,0.00,,,0.00,LWC V2.11 B50,2013-01-04 05:29:00,
2013-01-03 23:34:00,43.6,33.7,30.42,North,355,4.0,5.0,68,0.00,,,0.00,LWC V2.11 B50,2013-01-04 05:34:00,
2013-01-03 23:39:00,43.7,33.8,30.42,North,355,1.0,6.0,68,0.00,,,0.00,LWC V2.11 B50,2013-01-04 05:39:00,
2013-01-03 23:44:00,43.7,33.5,30.42,North,5,3.0,4.0,67,0.00,,,0.00,LWC V2.11 B50,2013-01-04 05:44:00,
2013-01-03 23:49:00,43.8,33.6,30.42,NNW,348,6.0,6.0,67,0.00,,,0.00,LWC V2.11 B50,2013-01-04 05:49:00,
2013-01-03 23:54:00,43.8,33.9,30.42,NNW,338,4.0,6.0,68,0.00,,,0.00,LWC V2.11 B50,2013-01-04 05:54:00,
2013-01-03 23:59:00,43.8,33.6,30.41,NNW,343,2.0,6.0,67,0.00,,,0.00,LWC V2.11 B50,2013-01-04 05:59:00,